Location: Newark
(30.1000°N, 109.4667°E)
Time: 01:08:56
(UTC+00:00)

SR - Pass Details

Date: 25 February 2020
Orbit: 577 x 878 km, 66.7° (Epoch: 28 March)

Event Time Altitude Azimuth Distance (km) Brightness Sun altitude
Rises 15:45:31 0° 349° (NNW) 3,207 - -63.4°
Reaches altitude 10° 15:48:26 10° 3° (N) 2,221 - -63.9°
Maximum altitude 15:52:28 24° 56° (NE) 1,421 - -64.4°
Drops below altitude 10° 15:56:13 10° 110° (ESE) 2,058 - -64.9°
Sets 15:58:48 0° 125° (SE) 2,916 - -65.2°
